Flag for Canada Weather past 2 weeks in Fort Smith, Northwest Territories, Canada

Now
72 °F

Partly sunny.


Feels Like: 77 °F
Forecast: 53 / 75 °F
Wind: 9 mph from Southeast

Location: Fort Smith

Current Time: Aug 4, 2015 at 12:32:03 PM

Latest Report: Aug 4, 2015 at 12:00 PM


Visibility: 15 mi

Pressure: 30.05 "Hg

Humidity: 50%

Dew point: 52 °F

Location of Fort SmithLocation

Historic Weather in Fort Smith — Graph

°F

Fort Smith temperature yesterday

Maximum temperature yesterday: 77 °F (at 6:00 PM)
Minimum temperature yesterday: 55 °F (at 5:00 AM)
Average temperature yesterday: 67 °F

Past Weeks' High & Low Weather Summary

 TemperatureHumidityPressure
High77 °F (Jul 24, 5:00 PM)100% (Jul 21, 10:00 PM)30.07 "Hg (Jul 21, 10:00 PM)
Low45 °F (Jul 24, 3:00 AM)22% (Aug 3, 4:00 PM)29.56 "Hg (Jul 22, 4:00 PM)
Average62 °F71%29.82 "Hg
* Reported Jul 20 11:00 AM — Aug 4 11:00 AM, Fort Smith, Weather by CustomWeather, © 2015

Note: Actual official high and low records may vary slightly from our data, if they occured in-between our weather recording intervals... More about our weather records

Advertising

Fort Smith weather history for previous 24 hours

 ConditionsComfort  
Time TempWeatherWind HumidityBarometerVisibility
11:00 AM
Tue, Aug 4
68 °FPartly sunny.9 mph60%30.06 "Hg15 mi
10:00 AM66 °FPartly sunny.8 mph64%30.06 "Hg15 mi
9:00 AM64 °FPassing clouds.5 mph68%30.06 "Hg15 mi
8:00 AM63 °FPassing clouds.8 mph73%30.06 "Hg15 mi
7:00 AM59 °FPassing clouds.6 mph77%30.07 "Hg15 mi
6:00 AM57 °FPassing clouds.6 mph82%30.06 "Hg15 mi
5:00 AM57 °FPassing clouds.5 mph77%30.05 "Hg15 mi
4:00 AM59 °FPassing clouds.5 mph72%30.05 "Hg15 mi
3:00 AM54 °FPassing clouds.3 mph77%30.04 "Hg15 mi
2:00 AM55 °FPassing clouds.2 mph67%30.04 "Hg15 mi
1:00 AM55 °FPassing clouds.No wind67%30.03 "Hg15 mi
12:00 AM57 °FPassing clouds.No wind63%30.02 "Hg15 mi
11:00 PM
Mon, Aug 3
61 °FPassing clouds.No wind52%30.00 "Hg15 mi
10:00 PM64 °FPartly sunny.2 mph46%29.99 "Hg15 mi
9:00 PM73 °FBroken clouds.2 mph31%29.99 "Hg15 mi
8:00 PM75 °FBroken clouds.3 mph27%29.98 "Hg15 mi
7:00 PM77 °FPartly sunny.5 mph26%29.98 "Hg15 mi
6:00 PM77 °FPartly sunny.5 mph28%29.98 "Hg15 mi
5:00 PM75 °FBroken clouds.5 mph24%30.00 "Hg15 mi
4:00 PM75 °FBroken clouds.6 mph22%30.00 "Hg15 mi
3:00 PM75 °FBroken clouds.7 mph24%30.00 "Hg15 mi
2:00 PM75 °FBroken clouds.7 mph24%30.01 "Hg15 mi
1:00 PM73 °FPartly sunny.6 mph29%30.01 "Hg15 mi
12:00 PM72 °FBroken clouds.5 mph31%30.02 "Hg15 mi
Weather by CustomWeather, © 2015

See weather overviewHow to use our weather pages